SJX082 KJFK-RCTP

Flight info

Callsign SJX082
Flight time N/A
Altitude 33000
Route GREKI DCT JUDDS DCT CAM DCT EPTUL/N0495F340 DCT 50N076W DCT VIRSO DCT 60N090W 64N100W 6630N11000W 68N120W 69N130W DCT ADREW DCT OME R338 NATES/N0500F350 R220 NRKEY/N0496F360 R220 NUBDA/N0499F370 R220 NANNO/N0498F360 OTR1 OBE DCT MKE DCT HWE Y12 TAPPI Z16 GNITS/N0500F380 Z162 KAMSA L512 TENAS Y579 PSN Y572 CJU Z82 PANSI Y711 MUGUS Y742 SALMI B576 BAKER BAKER1A
Aircraft A35K/H-SDE2E3GHIJ3J4J5LM1ORWXY/LB1D1

Departure

Time 2026-05-08 13:35
Airport John F. Kennedy International Airport (KJFK)

Arrival

Time N/A
Airport Taiwan Taoyuan International Airport (RCTP)
Time Latitude Longitude Altitude Speed Heading
2026-05-08 13:27 40.63715 -73.77999 27 ft 0 kts 271°
2026-05-08 13:30 40.63715 -73.77981 30 ft 2 kts 271°
2026-05-08 13:31 40.63715 -73.77961 32 ft 3 kts 265°
2026-05-08 13:31 40.63716 -73.77945 31 ft 3 kts 255°
2026-05-08 13:31 40.63721 -73.77924 32 ft 3 kts 233°
2026-05-08 13:31 40.63729 -73.77911 32 ft 3 kts 204°
2026-05-08 13:32 40.63738 -73.77906 32 ft 0 kts 182°
2026-05-08 13:32 40.63736 -73.77906 32 ft 0 kts 182°
2026-05-08 13:32 40.63734 -73.77906 32 ft 0 kts 182°
2026-05-08 13:32 40.63718 -73.77904 32 ft 4 kts 173°
2026-05-08 13:33 40.63673 -73.77897 30 ft 9 kts 173°
2026-05-08 13:33 40.63593 -73.77869 29 ft 14 kts 153°
2026-05-08 13:33 40.63507 -73.77836 30 ft 12 kts 197°
2026-05-08 13:33 40.63422 -73.77895 26 ft 16 kts 210°
2026-05-08 13:34 40.63310 -73.77968 27 ft 19 kts 203°
2026-05-08 13:34 40.63198 -73.78028 29 ft 7 kts 234°
2026-05-08 13:34 40.63213 -73.78089 28 ft 9 kts 302°
2026-05-08 13:34 40.63267 -73.78207 27 ft 33 kts 301°
2026-05-08 13:35 40.63496 -73.78714 28 ft 95 kts 301°
2026-05-08 13:35 40.63933 -73.79679 26 ft 149 kts 301°
2026-05-08 13:35 40.64550 -73.81015 224 ft 180 kts 302°
2026-05-08 13:35 40.65303 -73.82338 938 ft 182 kts 320°
2026-05-08 13:36 40.66529 -73.82781 1530 ft 195 kts
2026-05-08 13:36 40.67891 -73.82294 1730 ft 213 kts 21°
2026-05-08 13:36 40.69236 -73.81308 1908 ft 228 kts 29°
2026-05-08 13:36 40.70615 -73.80128 2073 ft 245 kts 30°
2026-05-08 13:37 40.72097 -73.78897 2383 ft 255 kts 28°
2026-05-08 13:37 40.73636 -73.77723 2886 ft 257 kts 25°
2026-05-08 13:37 40.75222 -73.76632 3428 ft 258 kts 23°
2026-05-08 13:37 40.76843 -73.75585 3957 ft 260 kts 21°
2026-05-08 13:38 40.78485 -73.74572 4448 ft 261 kts 21°
2026-05-08 13:38 40.80145 -73.73570 4897 ft 263 kts 20°
2026-05-08 13:38 40.81816 -73.72563 5388 ft 265 kts 20°
2026-05-08 13:38 40.83473 -73.71560 5855 ft 266 kts 20°
2026-05-08 13:39 40.85157 -73.70532 6381 ft 268 kts 20°
2026-05-08 13:39 40.86873 -73.69486 6848 ft 270 kts 19°
2026-05-08 13:39 40.88585 -73.68439 7311 ft 272 kts 19°
2026-05-08 13:39 40.90307 -73.67378 7776 ft 274 kts 19°
2026-05-08 13:40 40.92041 -73.66306 8269 ft 276 kts 19°
2026-05-08 13:40 40.93765 -73.65239 8749 ft 278 kts 19°
2026-05-08 13:40 40.95523 -73.64150 9252 ft 280 kts 18°
2026-05-08 13:40 40.97296 -73.63053 9752 ft 282 kts 18°
2026-05-08 13:41 40.99083 -73.61948 10164 ft 287 kts 18°
2026-05-08 13:41 41.00933 -73.60812 10355 ft 299 kts 18°
2026-05-08 13:41 41.02861 -73.59630 10560 ft 312 kts 18°
2026-05-08 13:41 41.04865 -73.58396 10778 ft 324 kts 18°
2026-05-08 13:42 41.06949 -73.57109 10998 ft 336 kts 19°
2026-05-08 13:42 41.09103 -73.55773 11204 ft 348 kts 19°
2026-05-08 13:42 41.11335 -73.54387 11445 ft 360 kts 19°
2026-05-08 13:42 41.13639 -73.52953 11652 ft 371 kts 19°
2026-05-08 13:43 41.16009 -73.51477 11893 ft 381 kts 19°
2026-05-08 13:43 41.18424 -73.49969 12260 ft 386 kts 19°
2026-05-08 13:43 41.20867 -73.48441 12691 ft 390 kts 19°
2026-05-08 13:43 41.23338 -73.46894 13120 ft 395 kts 20°
2026-05-08 13:44 41.25833 -73.45332 13556 ft 398 kts 19°
2026-05-08 13:44 41.28357 -73.43753 13950 ft 403 kts 19°
2026-05-08 13:44 41.30897 -73.42163 14361 ft 405 kts 19°
2026-05-08 13:44 41.33439 -73.40570 14768 ft 408 kts 19°
2026-05-08 13:45 41.34776 -73.39732 14965 ft 410 kts 19°
2026-05-08 13:45 41.36708 -73.38523 15252 ft 412 kts 19°
2026-05-08 13:45 41.39321 -73.36886 15641 ft 415 kts 19°
2026-05-08 13:45 41.41945 -73.35240 16030 ft 419 kts 19°
2026-05-08 13:46 41.44596 -73.33575 16423 ft 422 kts 19°
2026-05-08 13:46 41.47197 -73.31705 16774 ft 432 kts 27°
2026-05-08 13:46 41.49593 -73.29228 17183 ft 441 kts 35°
2026-05-08 13:46 41.51883 -73.26471 17561 ft 447 kts 38°
2026-05-08 13:47 41.54128 -73.23551 17978 ft 451 kts 39°
2026-05-08 13:47 41.56311 -73.20607 18358 ft 455 kts 40°
2026-05-08 13:47 41.58634 -73.17657 18715 ft 453 kts 34°
2026-05-08 13:47 41.61173 -73.15205 19084 ft 448 kts 24°
2026-05-08 13:48 41.63914 -73.13411 19448 ft 441 kts 13°
2026-05-08 13:48 41.66842 -73.12330 19822 ft 433 kts
2026-05-08 13:48 41.69810 -73.12015 20192 ft 425 kts 351°
2026-05-08 13:48 41.72749 -73.12248 20581 ft 422 kts 347°
2026-05-08 13:49 41.75702 -73.12692 20957 ft 423 kts 345°
2026-05-08 13:49 41.78582 -73.13220 21356 ft 424 kts 344°
2026-05-08 13:49 41.81550 -73.13793 21728 ft 426 kts 343°
2026-05-08 13:49 41.84460 -73.14348 22111 ft 429 kts 344°
2026-05-08 13:50 41.87409 -73.14890 22506 ft 432 kts 344°
2026-05-08 13:50 41.90420 -73.15426 22865 ft 435 kts 344°
2026-05-08 13:50 41.93429 -73.15950 23234 ft 438 kts 344°
2026-05-08 13:50 41.96449 -73.16468 23599 ft 440 kts 344°
2026-05-08 13:51 41.99494 -73.16989 23903 ft 442 kts 344°
2026-05-08 13:51 42.02536 -73.17509 24190 ft 444 kts 344°
2026-05-08 13:51 42.05625 -73.18037 24510 ft 446 kts 344°
2026-05-08 13:51 42.08712 -73.18566 24814 ft 448 kts 344°
2026-05-08 13:52 42.11815 -73.19098 25120 ft 450 kts 344°
2026-05-08 13:52 42.14920 -73.19633 25434 ft 453 kts 344°
2026-05-08 13:52 42.18046 -73.20172 25730 ft 454 kts 344°
2026-05-08 13:52 42.21188 -73.20714 26023 ft 457 kts 344°
2026-05-08 13:53 42.24336 -73.21258 26313 ft 458 kts 344°
2026-05-08 13:53 42.27529 -73.21811 26607 ft 461 kts 344°
2026-05-08 13:53 42.30716 -73.22364 26866 ft 463 kts 344°
2026-05-08 13:53 42.33909 -73.22918 27152 ft 466 kts 344°
2026-05-08 13:54 42.37135 -73.23478 27435 ft 468 kts 344°
2026-05-08 13:54 42.40381 -73.24041 27725 ft 470 kts 344°
2026-05-08 13:54 42.43633 -73.24607 27993 ft 472 kts 344°
2026-05-08 13:54 42.46885 -73.25174 28234 ft 474 kts 344°
2026-05-08 13:55 42.50155 -73.25744 28471 ft 476 kts 344°
2026-05-08 13:55 42.53457 -73.26321 28696 ft 478 kts 344°
2026-05-08 13:55 42.60050 -73.27470 29338 ft 477 kts 344°
2026-05-08 13:56 42.63349 -73.28044 29700 ft 477 kts 344°
2026-05-08 13:56 42.66636 -73.28616 30019 ft 476 kts 344°
2026-05-08 13:56 42.69907 -73.29188 30258 ft 476 kts 344°
2026-05-08 13:56 42.73190 -73.29765 30474 ft 476 kts 344°
2026-05-08 13:57 42.76436 -73.30336 30691 ft 476 kts 344°
2026-05-08 13:57 42.79730 -73.30917 30871 ft 477 kts 345°
2026-05-08 13:57 42.83055 -73.31504 31062 ft 477 kts 345°
2026-05-08 13:57 42.86350 -73.32087 31260 ft 478 kts 345°
2026-05-08 13:58 42.89646 -73.32669 31441 ft 478 kts 345°
2026-05-08 13:58 42.92949 -73.33254 31613 ft 478 kts 345°
2026-05-08 13:58 42.96115 -73.33814 31774 ft 479 kts 345°
2026-05-08 13:58 42.99479 -73.34410 31940 ft 479 kts 345°
2026-05-08 13:59 43.02834 -73.35081 32095 ft 477 kts 343°
2026-05-08 13:59 43.06055 -73.35896 32259 ft 475 kts 341°
2026-05-08 13:59 43.09289 -73.36795 32408 ft 475 kts 341°
2026-05-08 13:59 43.12574 -73.37727 32550 ft 476 kts 341°
2026-05-08 14:00 43.14719 -73.38330 32648 ft 476 kts 341°
2026-05-08 14:00 43.19026 -73.39515 32843 ft 477 kts 342°
2026-05-08 14:00 43.22290 -73.40392 32927 ft 478 kts 342°
2026-05-08 14:01 43.28853 -73.42130 32933 ft 485 kts 342°
2026-05-08 14:01 43.35494 -73.43877 32935 ft 485 kts 342°
2026-05-08 14:02 43.42123 -73.45621 32933 ft 485 kts 343°
2026-05-08 14:02 43.48745 -73.47375 32932 ft 485 kts 343°
2026-05-08 14:03 43.55390 -73.49140 32924 ft 486 kts 343°
2026-05-08 14:03 43.62022 -73.50906 32925 ft 486 kts 343°
2026-05-08 14:04 43.68664 -73.52678 32918 ft 486 kts 343°
2026-05-08 14:04 43.75305 -73.54453 32912 ft 486 kts 343°
2026-05-08 14:05 43.81875 -73.56214 32913 ft 486 kts 343°
2026-05-08 14:05 43.88512 -73.57998 32908 ft 487 kts 343°
2026-05-08 14:06 43.95184 -73.59793 32907 ft 487 kts 343°
2026-05-08 14:06 44.01825 -73.61584 32906 ft 487 kts 343°
2026-05-08 14:07 44.08493 -73.63387 32897 ft 487 kts 344°
2026-05-08 14:07 44.15152 -73.65192 32879 ft 487 kts 344°
2026-05-08 14:08 44.21802 -73.66999 32894 ft 487 kts 344°
2026-05-08 14:08 44.28387 -73.68792 32881 ft 487 kts 344°
2026-05-08 14:09 44.35079 -73.70619 32887 ft 487 kts 344°
2026-05-08 14:09 44.40620 -73.72135 32884 ft 487 kts 344°
2026-05-08 14:10 44.47271 -73.73959 32887 ft 487 kts 344°
2026-05-08 14:10 44.55007 -73.76085 32894 ft 488 kts 344°
2026-05-08 14:11 44.61663 -73.77919 32896 ft 488 kts 344°
2026-05-08 14:11 44.68319 -73.79757 32890 ft 488 kts 345°
2026-05-08 14:12 44.73906 -73.81303 32891 ft 488 kts 345°
2026-05-08 14:12 44.81649 -73.83451 32889 ft 488 kts 345°
2026-05-08 14:13 44.88323 -73.85307 32889 ft 488 kts 345°
2026-05-08 14:13 44.94993 -73.87166 32889 ft 488 kts 345°
2026-05-08 14:14 45.01653 -73.89027 32888 ft 488 kts 345°
2026-05-08 14:14 45.08324 -73.90895 32888 ft 488 kts 345°
2026-05-08 14:15 45.14888 -73.93198 32892 ft 486 kts 340°
2026-05-08 14:15 45.21367 -73.95882 32893 ft 485 kts 340°
2026-05-08 14:16 45.27814 -73.98499 32897 ft 486 kts 340°
2026-05-08 14:16 45.33235 -74.00633 32897 ft 486 kts 341°
2026-05-08 14:17 45.39757 -74.03174 32892 ft 486 kts 341°
2026-05-08 14:17 45.46268 -74.05713 32895 ft 486 kts 341°
2026-05-08 14:18 45.52792 -74.08267 32883 ft 486 kts 341°
2026-05-08 14:18 45.59305 -74.10826 32871 ft 486 kts 341°
2026-05-08 14:19 45.66873 -74.13808 32883 ft 486 kts 341°
2026-05-08 14:19 45.72347 -74.15969 32885 ft 486 kts 341°
2026-05-08 14:20 45.78818 -74.18530 32885 ft 486 kts 341°
2026-05-08 14:20 45.85346 -74.21120 32882 ft 486 kts 341°
2026-05-08 14:21 45.91909 -74.23729 32891 ft 486 kts 341°
2026-05-08 14:21 45.98388 -74.26312 32883 ft 487 kts 341°
2026-05-08 14:22 46.04955 -74.28936 32889 ft 487 kts 341°
2026-05-08 14:22 46.11482 -74.31550 32888 ft 487 kts 341°
2026-05-08 14:23 46.18009 -74.34171 32884 ft 487 kts 341°
2026-05-08 14:23 46.24499 -74.36783 32882 ft 487 kts 341°
2026-05-08 14:24 46.31081 -74.39440 32882 ft 488 kts 341°
2026-05-08 14:24 46.37569 -74.42065 32881 ft 488 kts 341°
2026-05-08 14:25 46.44076 -74.44704 32880 ft 488 kts 341°
2026-05-08 14:25 46.50638 -74.47372 32880 ft 488 kts 341°
2026-05-08 14:26 46.57169 -74.50034 32876 ft 488 kts 341°
2026-05-08 14:26 46.63695 -74.52700 32877 ft 487 kts 341°
2026-05-08 14:27 46.70226 -74.55375 32876 ft 488 kts 341°
2026-05-08 14:27 46.76770 -74.58063 32875 ft 488 kts 341°
2026-05-08 14:28 46.83295 -74.60749 32869 ft 488 kts 341°
2026-05-08 14:28 46.89825 -74.63445 32865 ft 488 kts 341°
2026-05-08 14:29 46.96357 -74.66148 32865 ft 488 kts 341°
2026-05-08 14:29 47.02890 -74.68858 32866 ft 488 kts 341°
2026-05-08 14:30 47.09410 -74.71570 32862 ft 488 kts 341°
2026-05-08 14:30 47.15953 -74.74298 32861 ft 487 kts 341°
2026-05-08 14:31 47.22471 -74.77023 32859 ft 488 kts 341°
2026-05-08 14:31 47.29008 -74.79762 32857 ft 488 kts 341°
2026-05-08 14:32 47.38799 -74.83879 32851 ft 488 kts 341°
2026-05-08 14:32 47.45324 -74.86632 32850 ft 488 kts 341°
2026-05-08 14:33 47.51859 -74.89394 32845 ft 488 kts 341°
2026-05-08 14:33 47.58380 -74.92159 32847 ft 488 kts 341°
2026-05-08 14:34 47.64865 -74.94916 32846 ft 488 kts 341°
2026-05-08 14:34 47.71381 -74.97694 32842 ft 488 kts 341°
2026-05-08 14:35 47.77915 -75.00486 32840 ft 488 kts 341°
2026-05-08 14:35 47.84445 -75.03283 32838 ft 488 kts 341°
2026-05-08 14:36 47.90971 -75.06085 32836 ft 488 kts 341°
2026-05-08 14:36 47.97502 -75.08898 32830 ft 488 kts 341°
2026-05-08 14:37 48.04026 -75.11716 32828 ft 488 kts 341°
2026-05-08 14:37 48.10559 -75.14545 32821 ft 488 kts 341°
2026-05-08 14:38 48.17074 -75.17373 32843 ft 488 kts 341°
2026-05-08 14:38 48.23590 -75.20209 32824 ft 489 kts 341°
2026-05-08 14:39 48.30135 -75.23066 32828 ft 489 kts 341°
2026-05-08 14:39 48.36660 -75.25921 32825 ft 489 kts 341°
2026-05-08 14:40 48.43210 -75.28795 32823 ft 489 kts 341°
2026-05-08 14:40 48.49729 -75.31663 32821 ft 489 kts 341°
2026-05-08 14:41 48.56263 -75.34545 32822 ft 489 kts 341°
2026-05-08 14:41 48.62794 -75.37434 32822 ft 489 kts 341°
2026-05-08 14:42 48.69329 -75.40332 32820 ft 490 kts 341°
2026-05-08 14:42 48.75869 -75.43240 32815 ft 490 kts 341°
2026-05-08 14:43 48.82402 -75.46153 32814 ft 490 kts 341°
2026-05-08 14:43 48.88926 -75.49071 32809 ft 490 kts 341°
2026-05-08 14:44 48.95474 -75.52006 32810 ft 490 kts 341°
2026-05-08 14:44 49.02010 -75.54945 32803 ft 490 kts 341°
2026-05-08 14:45 49.08555 -75.57895 32805 ft 490 kts 341°
2026-05-08 14:45 49.15098 -75.60853 32803 ft 491 kts 340°
2026-05-08 14:46 49.21651 -75.63825 32801 ft 491 kts 340°
2026-05-08 14:46 49.28157 -75.66782 32809 ft 491 kts 340°
2026-05-08 14:47 49.34709 -75.69768 32800 ft 491 kts 340°
2026-05-08 14:47 49.41255 -75.72760 32800 ft 491 kts 340°
2026-05-08 14:48 49.47804 -75.75762 32793 ft 491 kts 340°
2026-05-08 14:48 49.54357 -75.78774 32794 ft 491 kts 340°
2026-05-08 14:49 49.60910 -75.81795 32800 ft 492 kts 340°
2026-05-08 14:49 49.67451 -75.84818 32793 ft 492 kts 340°
2026-05-08 14:50 49.80629 -75.90937 32787 ft 493 kts 340°
2026-05-08 14:51 49.87195 -75.93997 32784 ft 493 kts 340°
2026-05-08 14:51 49.93757 -75.97065 32783 ft 493 kts 340°
2026-05-08 14:52 50.03251 -76.02948 32773 ft 488 kts 328°
2026-05-08 14:53 50.09103 -76.08134 32775 ft 488 kts 327°
2026-05-08 14:53 50.14973 -76.13481 32773 ft 489 kts 327°
2026-05-08 14:54 50.20852 -76.18847 32770 ft 489 kts 327°
2026-05-08 14:54 50.26723 -76.24201 32766 ft 489 kts 327°
2026-05-08 14:55 50.32599 -76.29567 32760 ft 489 kts 327°
2026-05-08 14:55 50.38482 -76.34955 32762 ft 489 kts 327°
2026-05-08 14:56 50.44351 -76.40346 32757 ft 489 kts 327°
2026-05-08 14:56 50.50195 -76.45732 32761 ft 490 kts 327°
2026-05-08 14:57 50.55947 -76.51047 32754 ft 490 kts 327°
2026-05-08 14:57 50.61794 -76.56466 32750 ft 490 kts 327°
2026-05-08 14:58 50.67708 -76.61963 32746 ft 490 kts 327°
2026-05-08 14:58 50.73587 -76.67443 32749 ft 491 kts 327°
2026-05-08 14:59 50.79420 -76.72898 32749 ft 491 kts 327°
2026-05-08 14:59 50.88229 -76.81163 32744 ft 491 kts 327°
2026-05-08 15:00 50.94113 -76.86704 32743 ft 492 kts 327°
2026-05-08 15:00 51.00028 -76.92292 32741 ft 492 kts 327°
2026-05-08 15:01 51.05868 -76.97825 32738 ft 492 kts 327°
2026-05-08 15:01 51.11740 -77.03406 32734 ft 492 kts 327°
2026-05-08 15:02 51.17625 -77.09015 32735 ft 492 kts 327°
2026-05-08 15:02 51.22503 -77.13678 32735 ft 493 kts 327°
2026-05-08 15:03 51.29371 -77.20262 32729 ft 493 kts 327°
2026-05-08 15:03 51.35253 -77.25919 32726 ft 493 kts 327°
2026-05-08 15:04 51.40130 -77.30622 32729 ft 493 kts 327°
2026-05-08 15:04 51.46005 -77.36305 32733 ft 493 kts 327°
2026-05-08 15:05 51.51883 -77.42008 32724 ft 493 kts 327°
2026-05-08 15:05 51.57753 -77.47720 32720 ft 494 kts 327°
2026-05-08 15:06 51.63625 -77.53451 32713 ft 494 kts 326°
2026-05-08 15:06 51.69500 -77.59203 32708 ft 494 kts 326°
2026-05-08 15:07 51.75366 -77.64964 32715 ft 495 kts 326°
2026-05-08 15:07 51.81252 -77.70763 32710 ft 495 kts 326°
2026-05-08 15:08 51.87123 -77.76565 32703 ft 495 kts 326°
2026-05-08 15:08 51.93000 -77.82390 32701 ft 495 kts 326°
2026-05-08 15:09 51.98828 -77.88185 32699 ft 495 kts 326°
2026-05-08 15:09 52.04687 -77.94029 32696 ft 495 kts 326°
2026-05-08 15:10 52.10561 -77.99906 32697 ft 495 kts 326°
2026-05-08 15:10 52.16426 -78.05793 32699 ft 495 kts 326°
2026-05-08 15:11 52.22290 -78.11697 32702 ft 495 kts 326°
2026-05-08 15:11 52.28147 -78.17612 32706 ft 495 kts 326°
2026-05-08 15:12 52.34013 -78.23556 32705 ft 496 kts 326°
2026-05-08 15:12 52.39870 -78.29509 32708 ft 496 kts 326°
2026-05-08 15:13 52.45723 -78.35477 32702 ft 496 kts 326°
2026-05-08 15:13 52.51573 -78.41461 32714 ft 496 kts 326°
2026-05-08 15:14 52.57429 -78.47470 32692 ft 496 kts 326°
2026-05-08 15:14 52.63271 -78.53484 32688 ft 496 kts 326°
2026-05-08 15:15 52.69117 -78.59521 32692 ft 496 kts 326°
2026-05-08 15:15 52.74917 -78.65530 32693 ft 496 kts 326°
2026-05-08 15:16 52.80804 -78.71649 32693 ft 496 kts 326°
2026-05-08 15:16 52.86643 -78.77737 32691 ft 496 kts 326°
2026-05-08 15:17 52.92490 -78.83853 32689 ft 496 kts 326°
2026-05-08 15:17 52.98318 -78.89969 32683 ft 496 kts 326°
2026-05-08 15:18 53.04121 -78.96078 32687 ft 496 kts 326°
2026-05-08 15:18 53.09946 -79.02231 32684 ft 496 kts 326°
2026-05-08 15:19 53.15761 -79.08393 32683 ft 496 kts 326°
2026-05-08 15:19 53.21543 -79.14540 32684 ft 496 kts 326°
2026-05-08 15:20 53.27342 -79.20725 32680 ft 496 kts 326°
2026-05-08 15:20 53.33166 -79.26957 32681 ft 496 kts 326°
2026-05-08 15:21 53.38983 -79.33203 32682 ft 496 kts 326°
2026-05-08 15:21 53.44783 -79.39450 32678 ft 496 kts 326°
2026-05-08 15:22 53.50570 -79.45704 32677 ft 496 kts 326°
2026-05-08 15:22 53.56388 -79.52013 32677 ft 496 kts 326°
2026-05-08 15:23 53.62184 -79.58318 32679 ft 496 kts 326°
2026-05-08 15:23 53.67982 -79.64647 32674 ft 496 kts 326°
2026-05-08 15:24 53.73785 -79.71003 32673 ft 496 kts 326°
2026-05-08 15:24 53.79575 -79.77365 32669 ft 497 kts 326°
2026-05-08 15:25 53.85369 -79.83752 32667 ft 497 kts 326°
2026-05-08 15:25 53.91155 -79.90152 32667 ft 497 kts 326°
2026-05-08 15:26 53.96931 -79.96564 32667 ft 497 kts 326°
2026-05-08 15:26 54.02673 -80.03071 32663 ft 497 kts 322°
2026-05-08 15:27 54.08096 -80.10373 32662 ft 496 kts 319°
2026-05-08 15:27 54.13431 -80.17859 32665 ft 496 kts 320°
2026-05-08 15:28 54.18806 -80.25236 32661 ft 496 kts 320°
2026-05-08 15:28 54.24220 -80.32572 32656 ft 497 kts 321°
2026-05-08 15:29 54.29639 -80.39912 32653 ft 497 kts 321°
2026-05-08 15:29 54.35016 -80.47230 32652 ft 497 kts 320°
2026-05-08 15:30 54.40449 -80.54654 32650 ft 497 kts 320°
2026-05-08 15:30 54.45851 -80.62066 32652 ft 497 kts 320°
2026-05-08 15:31 54.51223 -80.69463 32643 ft 497 kts 320°
2026-05-08 15:31 54.56625 -80.76923 32643 ft 497 kts 320°
2026-05-08 15:32 54.62014 -80.84394 32633 ft 498 kts 320°
2026-05-08 15:32 54.67411 -80.91905 32644 ft 498 kts 320°
2026-05-08 15:33 54.72796 -80.99419 32636 ft 498 kts 320°
2026-05-08 15:33 54.78192 -81.06977 32634 ft 499 kts 320°
2026-05-08 15:34 54.83576 -81.14547 32636 ft 499 kts 320°
2026-05-08 15:34 54.88966 -81.22152 32617 ft 499 kts 320°
2026-05-08 15:35 54.94347 -81.29771 32624 ft 499 kts 320°
2026-05-08 15:35 54.99720 -81.37406 32615 ft 499 kts 320°
2026-05-08 15:36 55.04185 -81.43771 32627 ft 499 kts 320°
2026-05-08 15:36 55.10466 -81.52758 32622 ft 499 kts 320°
2026-05-08 15:37 55.15839 -81.60474 32614 ft 500 kts 320°
2026-05-08 15:37 55.21205 -81.68209 32615 ft 500 kts 320°
2026-05-08 15:38 55.26565 -81.75965 32622 ft 500 kts 320°
2026-05-08 15:38 55.31913 -81.83729 32608 ft 500 kts 320°
2026-05-08 15:39 55.37268 -81.91532 32605 ft 500 kts 320°
2026-05-08 15:39 55.42623 -81.99364 32608 ft 500 kts 320°
2026-05-08 15:40 55.47955 -82.07191 32607 ft 501 kts 320°
2026-05-08 15:40 55.53317 -82.15090 32605 ft 500 kts 320°
2026-05-08 15:41 55.58650 -82.22977 32606 ft 500 kts 320°
2026-05-08 15:41 55.63982 -82.30889 32604 ft 500 kts 320°
2026-05-08 15:42 55.69306 -82.38819 32601 ft 500 kts 320°
2026-05-08 15:42 55.74639 -82.46791 32603 ft 500 kts 320°
2026-05-08 15:43 55.79960 -82.54777 32598 ft 501 kts 320°
2026-05-08 15:43 55.85265 -82.62767 32594 ft 501 kts 319°
2026-05-08 15:44 55.90587 -82.70813 32595 ft 501 kts 319°
2026-05-08 15:44 55.95886 -82.78854 32593 ft 500 kts 319°
2026-05-08 15:45 56.01186 -82.86926 32591 ft 500 kts 319°
2026-05-08 15:45 56.06439 -82.94957 32586 ft 500 kts 319°
2026-05-08 15:46 56.11756 -83.03115 32583 ft 500 kts 319°
2026-05-08 15:46 56.17033 -83.11244 32584 ft 500 kts 319°
2026-05-08 15:47 56.22274 -83.19346 32583 ft 500 kts 319°
2026-05-08 15:47 56.27532 -83.27506 32581 ft 500 kts 319°
2026-05-08 15:48 56.35430 -83.39822 32575 ft 500 kts 319°
2026-05-08 15:49 56.40684 -83.48054 32576 ft 501 kts 319°
2026-05-08 15:49 56.45937 -83.56314 32574 ft 501 kts 319°
2026-05-08 15:50 56.50340 -83.63262 32570 ft 501 kts 319°
2026-05-08 15:50 56.55585 -83.71568 32566 ft 501 kts 319°
2026-05-08 15:51 56.60813 -83.79880 32566 ft 501 kts 319°
2026-05-08 15:51 56.66058 -83.88251 32562 ft 501 kts 319°
2026-05-08 15:52 56.71288 -83.96629 32561 ft 501 kts 319°
2026-05-08 15:52 56.76469 -84.04962 32558 ft 501 kts 319°
2026-05-08 15:53 56.81699 -84.13404 32556 ft 501 kts 319°
2026-05-08 15:53 56.86912 -84.21854 32552 ft 501 kts 319°
2026-05-08 15:54 56.92133 -84.30347 32551 ft 502 kts 318°
2026-05-08 15:54 56.97342 -84.38856 32544 ft 502 kts 318°
2026-05-08 15:55 57.02553 -84.47401 32542 ft 502 kts 318°
2026-05-08 15:55 57.10348 -84.60247 32541 ft 502 kts 318°
2026-05-08 15:56 57.15540 -84.68843 32533 ft 502 kts 318°
2026-05-08 15:56 57.20730 -84.77473 32529 ft 502 kts 318°
2026-05-08 15:57 57.25913 -84.86120 32527 ft 503 kts 318°
2026-05-08 15:57 57.31104 -84.94820 32523 ft 503 kts 318°
2026-05-08 15:58 57.36272 -85.03516 32521 ft 503 kts 318°
2026-05-08 15:58 57.41443 -85.12251 32512 ft 503 kts 318°
2026-05-08 15:59 57.46613 -85.21019 32511 ft 503 kts 318°
2026-05-08 15:59 57.51765 -85.29791 32503 ft 503 kts 318°
2026-05-08 16:00 57.56886 -85.38543 32500 ft 503 kts 318°
2026-05-08 16:00 57.62069 -85.47439 32494 ft 503 kts 318°
2026-05-08 16:01 57.67172 -85.56235 32494 ft 503 kts 317°
2026-05-08 16:01 57.72319 -85.65141 32487 ft 504 kts 317°
2026-05-08 16:02 57.77452 -85.74058 32482 ft 504 kts 317°
2026-05-08 16:02 57.82588 -85.83017 32476 ft 504 kts 317°
2026-05-08 16:03 57.87710 -85.91989 32472 ft 504 kts 317°
2026-05-08 16:03 57.92814 -86.00965 32413 ft 504 kts 317°
2026-05-08 16:04 57.97944 -86.10025 32464 ft 504 kts 317°
2026-05-08 16:04 58.03062 -86.19096 32476 ft 505 kts 317°
2026-05-08 16:05 58.08165 -86.28182 32458 ft 505 kts 317°
2026-05-08 16:05 58.13271 -86.37311 32458 ft 505 kts 317°
2026-05-08 16:06 58.18325 -86.46384 32444 ft 504 kts 317°
2026-05-08 16:06 58.23418 -86.55565 32446 ft 505 kts 317°
2026-05-08 16:07 58.28499 -86.64764 32433 ft 505 kts 317°
2026-05-08 16:07 58.33576 -86.73993 32431 ft 505 kts 317°
2026-05-08 16:08 58.38652 -86.83259 32447 ft 505 kts 317°
2026-05-08 16:08 58.43714 -86.92542 32439 ft 505 kts 317°
2026-05-08 16:09 58.48769 -87.01848 32437 ft 505 kts 317°
2026-05-08 16:09 58.53818 -87.11181 32437 ft 505 kts 317°
2026-05-08 16:10 58.58860 -87.20540 32427 ft 505 kts 317°
2026-05-08 16:10 58.63898 -87.29931 32431 ft 505 kts 316°
2026-05-08 16:11 58.68919 -87.39334 32430 ft 505 kts 316°
2026-05-08 16:11 58.73946 -87.48786 32434 ft 505 kts 316°
2026-05-08 16:12 58.78963 -87.58260 32432 ft 505 kts 316°
2026-05-08 16:12 58.83972 -87.67756 32426 ft 505 kts 316°
2026-05-08 16:13 58.88983 -87.77298 32426 ft 505 kts 316°
2026-05-08 16:13 58.93984 -87.86867 32432 ft 505 kts 316°
2026-05-08 16:14 58.98969 -87.96443 32429 ft 505 kts 316°
2026-05-08 16:14 59.03901 -88.05956 32428 ft 505 kts 316°
2026-05-08 16:15 59.08906 -88.15655 32429 ft 505 kts 316°
2026-05-08 16:15 59.13879 -88.25332 32424 ft 506 kts 316°
2026-05-08 16:16 59.18842 -88.35034 32432 ft 505 kts 316°
2026-05-08 16:16 59.23798 -88.44763 32429 ft 506 kts 316°
2026-05-08 16:17 59.27942 -88.52933 32436 ft 506 kts 316°
2026-05-08 16:17 59.33696 -88.64326 32438 ft 506 kts 316°
2026-05-08 16:18 59.38632 -88.74146 32435 ft 505 kts 316°
2026-05-08 16:18 59.43548 -88.83967 32439 ft 505 kts 315°
2026-05-08 16:19 59.48468 -88.93836 32441 ft 504 kts 315°
2026-05-08 16:19 59.53370 -89.03716 32439 ft 504 kts 315°
2026-05-08 16:20 59.58255 -89.13609 32440 ft 504 kts 315°
2026-05-08 16:20 59.63143 -89.23550 32439 ft 504 kts 315°
2026-05-08 16:21 59.68023 -89.33517 32447 ft 504 kts 315°
2026-05-08 16:21 59.72883 -89.43486 32446 ft 504 kts 315°
2026-05-08 16:22 59.77740 -89.53497 32446 ft 503 kts 315°
2026-05-08 16:22 59.82559 -89.63473 32451 ft 503 kts 315°
2026-05-08 16:23 59.87395 -89.73535 32455 ft 503 kts 315°
2026-05-08 16:23 59.92222 -89.83617 32453 ft 503 kts 315°
2026-05-08 16:24 59.97035 -89.93714 32464 ft 502 kts 315°
2026-05-08 16:24 60.01850 -90.03838 32461 ft 502 kts 315°
2026-05-08 16:25 60.06743 -90.13758 32464 ft 502 kts 316°
2026-05-08 16:25 60.11674 -90.23672 32466 ft 501 kts 316°
2026-05-08 16:26 60.16576 -90.33630 32467 ft 501 kts 316°
2026-05-08 16:26 60.21456 -90.43635 32473 ft 501 kts 316°
2026-05-08 16:27 60.26332 -90.53685 32483 ft 501 kts 316°
2026-05-08 16:27 60.31188 -90.63739 32489 ft 501 kts 316°
2026-05-08 16:28 60.36041 -90.73829 32475 ft 501 kts 316°
2026-05-08 16:28 60.40884 -90.83946 32489 ft 500 kts 316°
2026-05-08 16:29 60.45711 -90.94076 32492 ft 500 kts 316°
2026-05-08 16:29 60.50532 -91.04238 32498 ft 500 kts 316°
2026-05-08 16:30 60.55313 -91.14363 32498 ft 500 kts 316°
2026-05-08 16:30 60.60112 -91.24575 32503 ft 499 kts 316°
2026-05-08 16:31 60.64905 -91.34819 32510 ft 499 kts 316°
2026-05-08 16:31 60.69675 -91.45060 32507 ft 499 kts 316°
2026-05-08 16:32 60.74467 -91.55397 32516 ft 499 kts 315°
2026-05-08 16:32 60.79226 -91.65708 32525 ft 499 kts 315°
2026-05-08 16:33 60.83984 -91.76070 32523 ft 499 kts 315°
2026-05-08 16:33 60.88732 -91.86456 32532 ft 499 kts 315°
2026-05-08 16:34 60.93469 -91.96865 32538 ft 499 kts 315°
2026-05-08 16:34 60.98205 -92.07321 32539 ft 499 kts 315°
2026-05-08 16:35 61.02922 -92.17784 32546 ft 499 kts 315°
2026-05-08 16:35 61.07634 -92.28287 32550 ft 498 kts 315°
2026-05-08 16:36 61.12342 -92.38828 32556 ft 498 kts 315°
2026-05-08 16:36 61.17033 -92.49382 32561 ft 498 kts 315°
2026-05-08 16:37 61.21712 -92.59958 32568 ft 498 kts 315°
2026-05-08 16:37 61.26390 -92.70584 32570 ft 498 kts 315°
2026-05-08 16:38 61.30267 -92.79427 32573 ft 498 kts 315°
2026-05-08 16:38 61.35709 -92.91900 32579 ft 498 kts 315°
2026-05-08 16:39 61.39575 -93.00804 32584 ft 498 kts 315°
2026-05-08 16:39 61.44212 -93.11529 32587 ft 498 kts 315°
2026-05-08 16:40 61.48844 -93.22298 32596 ft 498 kts 315°
2026-05-08 16:40 61.53460 -93.33078 32597 ft 497 kts 315°
2026-05-08 16:41 61.58076 -93.43908 32607 ft 497 kts 315°
2026-05-08 16:42 61.64976 -93.60199 32613 ft 497 kts 314°
2026-05-08 16:42 61.69531 -93.71019 32632 ft 497 kts 314°
2026-05-08 16:43 61.74102 -93.81931 32616 ft 497 kts 314°
2026-05-08 16:43 61.78675 -93.92898 32628 ft 497 kts 314°
2026-05-08 16:44 61.83230 -94.03878 32632 ft 497 kts 314°
2026-05-08 16:44 61.87806 -94.14961 32658 ft 497 kts 314°
2026-05-08 16:45 61.92340 -94.25991 32645 ft 501 kts 314°
2026-05-08 16:45 61.96906 -94.37156 32647 ft 501 kts 314°
2026-05-08 16:46 62.01467 -94.48374 32653 ft 501 kts 314°
2026-05-08 16:46 62.06018 -94.59616 32661 ft 501 kts 314°
2026-05-08 16:47 62.10565 -94.70907 32668 ft 501 kts 314°
2026-05-08 16:47 62.15092 -94.82204 32674 ft 501 kts 314°
2026-05-08 16:48 62.19611 -94.93540 32677 ft 501 kts 314°
2026-05-08 16:48 62.24124 -95.04916 32694 ft 501 kts 314°
2026-05-08 16:49 62.28636 -95.16346 32690 ft 501 kts 314°
2026-05-08 16:49 62.33125 -95.27777 32699 ft 501 kts 314°
2026-05-08 16:50 62.37613 -95.39263 32702 ft 501 kts 314°
2026-05-08 16:50 62.42085 -95.50769 32710 ft 501 kts 314°
2026-05-08 16:51 62.46554 -95.62325 32719 ft 501 kts 314°
2026-05-08 16:51 62.50972 -95.73809 32724 ft 501 kts 314°
2026-05-08 16:52 62.55454 -95.85517 32730 ft 501 kts 314°
2026-05-08 16:52 62.59857 -95.97081 32743 ft 501 kts 314°
2026-05-08 16:53 62.66496 -96.14625 32752 ft 501 kts 313°
2026-05-08 16:53 62.70903 -96.26350 32759 ft 501 kts 313°
2026-05-08 16:54 62.75282 -96.38059 32765 ft 501 kts 313°
2026-05-08 16:54 62.79688 -96.49904 32777 ft 501 kts 313°
2026-05-08 16:55 62.84076 -96.61762 32787 ft 501 kts 313°
2026-05-08 16:55 62.88445 -96.73631 32790 ft 501 kts 313°
2026-05-08 16:56 62.92807 -96.85544 32789 ft 501 kts 313°
2026-05-08 16:56 62.97166 -96.97509 32799 ft 501 kts 313°
2026-05-08 16:57 63.01517 -97.09519 32805 ft 501 kts 313°
2026-05-08 16:57 63.05852 -97.21547 32810 ft 502 kts 313°
2026-05-08 16:58 63.10182 -97.33630 32817 ft 502 kts 313°
2026-05-08 16:58 63.14494 -97.45722 32821 ft 502 kts 314°
2026-05-08 16:59 63.18811 -97.57894 32828 ft 502 kts 314°
2026-05-08 16:59 63.23109 -97.70077 32834 ft 501 kts 314°
2026-05-08 17:00 63.27386 -97.82269 32839 ft 501 kts 314°
2026-05-08 17:00 63.31661 -97.94517 32843 ft 501 kts 314°
2026-05-08 17:01 63.35924 -98.06802 32852 ft 501 kts 314°
2026-05-08 17:01 63.40164 -98.19088 32859 ft 500 kts 314°
2026-05-08 17:02 63.44405 -98.31440 32869 ft 500 kts 314°
2026-05-08 17:02 63.48574 -98.43647 32883 ft 500 kts 314°
2026-05-08 17:03 63.52832 -98.56184 32883 ft 500 kts 314°
2026-05-08 17:03 63.57029 -98.68608 32885 ft 499 kts 313°
2026-05-08 17:04 63.61208 -98.81048 32897 ft 499 kts 313°
2026-05-08 17:04 63.65353 -98.93455 32909 ft 499 kts 313°
2026-05-08 17:05 63.69504 -99.05951 32906 ft 499 kts 313°
2026-05-08 17:05 63.73667 -99.18557 32915 ft 499 kts 313°
2026-05-08 17:06 63.77821 -99.31202 32925 ft 499 kts 313°
2026-05-08 17:06 63.81925 -99.43761 32928 ft 499 kts 313°
2026-05-08 17:07 63.86036 -99.56418 32942 ft 499 kts 313°
2026-05-08 17:07 63.90145 -99.69137 32943 ft 499 kts 313°
2026-05-08 17:08 63.94227 -99.81844 32949 ft 499 kts 312°
2026-05-08 17:08 63.98284 -99.94547 32953 ft 498 kts 312°
2026-05-08 17:09 64.02341 -100.07364 32961 ft 499 kts 311°
2026-05-08 17:09 64.06333 -100.20322 32963 ft 499 kts 311°
2026-05-08 17:10 64.10297 -100.33311 32973 ft 498 kts 311°
2026-05-08 17:10 64.14260 -100.46322 32981 ft 498 kts 311°
2026-05-08 17:11 64.18213 -100.59352 32985 ft 498 kts 310°
2026-05-08 17:11 64.22158 -100.72425 32989 ft 498 kts 310°
2026-05-08 17:12 64.26081 -100.85507 32998 ft 498 kts 310°
2026-05-08 17:12 64.30002 -100.98656 33001 ft 498 kts 310°
2026-05-08 17:13 64.33909 -101.11831 33006 ft 498 kts 310°
2026-05-08 17:13 64.37805 -101.25056 33010 ft 498 kts 309°
2026-05-08 17:14 64.41696 -101.38339 33016 ft 498 kts 309°
2026-05-08 17:14 64.45572 -101.51644 33023 ft 499 kts 309°
2026-05-08 17:15 64.49436 -101.64989 33030 ft 499 kts 309°
2026-05-08 17:15 64.53293 -101.78390 33048 ft 499 kts 309°
2026-05-08 17:16 64.60946 -102.05226 33058 ft 500 kts 308°
2026-05-08 17:17 64.64773 -102.18765 33063 ft 500 kts 308°
2026-05-08 17:17 64.68593 -102.32360 33065 ft 501 kts 308°
2026-05-08 17:18 64.72402 -102.46002 33070 ft 501 kts 308°
2026-05-08 17:18 64.76201 -102.59688 33068 ft 502 kts 307°
2026-05-08 17:19 64.79994 -102.73438 33071 ft 502 kts 307°
2026-05-08 17:19 64.83775 -102.87232 33078 ft 503 kts 307°
2026-05-08 17:20 64.87551 -103.01093 33084 ft 503 kts 307°
2026-05-08 17:20 64.91314 -103.14993 33106 ft 503 kts 307°
2026-05-08 17:21 64.95068 -103.28942 33102 ft 504 kts 306°
2026-05-08 17:21 64.98810 -103.42937 33102 ft 504 kts 306°
2026-05-08 17:22 65.02544 -103.56992 33110 ft 505 kts 306°
2026-05-08 17:22 65.06262 -103.71074 33110 ft 505 kts 306°
2026-05-08 17:23 65.09981 -103.85254 33118 ft 506 kts 305°
2026-05-08 17:23 65.13682 -103.99450 33122 ft 506 kts 305°
2026-05-08 17:24 65.17382 -104.13740 33129 ft 507 kts 304°
2026-05-08 17:24 65.20439 -104.25614 33132 ft 507 kts 304°
2026-05-08 17:25 65.24114 -104.39972 33134 ft 507 kts 304°
2026-05-08 17:25 65.27774 -104.54369 33139 ft 508 kts 304°
2026-05-08 17:26 65.31422 -104.68811 33145 ft 508 kts 303°
2026-05-08 17:26 65.35650 -104.85669 33148 ft 508 kts 303°
2026-05-08 17:27 65.38687 -104.97857 33152 ft 508 kts 303°
2026-05-08 17:27 65.42301 -105.12451 33156 ft 508 kts 302°
2026-05-08 17:28 65.45897 -105.27070 33159 ft 509 kts 302°
2026-05-08 17:28 65.49488 -105.41764 33159 ft 509 kts 302°
2026-05-08 17:29 65.53062 -105.56487 33160 ft 509 kts 302°
2026-05-08 17:29 65.56601 -105.71166 33157 ft 509 kts 301°
2026-05-08 17:30 65.60175 -105.86093 33152 ft 509 kts 301°
2026-05-08 17:30 65.63684 -106.00846 33149 ft 509 kts 301°
2026-05-08 17:31 65.67209 -106.15765 33149 ft 510 kts 301°
2026-05-08 17:31 65.70714 -106.30706 33152 ft 510 kts 300°
2026-05-08 17:32 65.74208 -106.45701 33155 ft 510 kts 300°
2026-05-08 17:32 65.77685 -106.60730 33155 ft 510 kts 300°
2026-05-08 17:33 65.81154 -106.75827 33159 ft 511 kts 300°
2026-05-08 17:33 65.84611 -106.90976 33165 ft 511 kts 299°
2026-05-08 17:34 65.88057 -107.06184 33165 ft 511 kts 299°
2026-05-08 17:34 65.91482 -107.21410 33167 ft 512 kts 298°
2026-05-08 17:35 65.94900 -107.36709 33174 ft 512 kts 298°
2026-05-08 17:35 65.98306 -107.52064 33177 ft 512 kts 298°
2026-05-08 17:36 66.01696 -107.67456 33176 ft 512 kts 297°
2026-05-08 17:36 66.05062 -107.82852 33181 ft 512 kts 297°
2026-05-08 17:37 66.08421 -107.98329 33181 ft 512 kts 297°
2026-05-08 17:37 66.11760 -108.13821 33182 ft 512 kts 296°
2026-05-08 17:38 66.15064 -108.29266 33187 ft 512 kts 296°
2026-05-08 17:38 66.18395 -108.44951 33188 ft 512 kts 296°
2026-05-08 17:39 66.21665 -108.60456 33193 ft 512 kts 296°
2026-05-08 17:39 66.24941 -108.76116 33192 ft 512 kts 295°
2026-05-08 17:40 66.28199 -108.91801 33199 ft 511 kts 295°
2026-05-08 17:40 66.31448 -109.07558 33200 ft 511 kts 295°
2026-05-08 17:41 66.34668 -109.23300 33203 ft 511 kts 294°
2026-05-08 17:41 66.37879 -109.39106 33206 ft 511 kts 294°
2026-05-08 17:42 66.41072 -109.54944 33207 ft 511 kts 294°
2026-05-08 17:42 66.44246 -109.70813 33217 ft 510 kts 293°
2026-05-08 17:43 66.47398 -109.86694 33217 ft 510 kts 293°
2026-05-08 17:43 66.50536 -110.02621 33219 ft 510 kts 292°
2026-05-08 17:44 66.53610 -110.18594 33220 ft 509 kts 292°
2026-05-08 17:44 66.56647 -110.34673 33229 ft 509 kts 291°
2026-05-08 17:45 66.59667 -110.50745 33228 ft 508 kts 291°
2026-05-08 17:45 66.62675 -110.66838 33231 ft 508 kts 291°
2026-05-08 17:46 66.65665 -110.82949 33238 ft 508 kts 290°
2026-05-08 17:46 66.68640 -110.99105 33240 ft 507 kts 290°
2026-05-08 17:47 66.71592 -111.15270 33243 ft 507 kts 290°
2026-05-08 17:47 66.74035 -111.28752 33245 ft 507 kts 290°
2026-05-08 17:48 66.77449 -111.47751 33247 ft 507 kts 289°
2026-05-08 17:48 66.80332 -111.63925 33251 ft 507 kts 289°
2026-05-08 17:49 66.83216 -111.80241 33250 ft 506 kts 289°
2026-05-08 17:49 66.86079 -111.96564 33252 ft 506 kts 289°
2026-05-08 17:50 66.88925 -112.12935 33258 ft 506 kts 289°
2026-05-08 17:50 66.91758 -112.29356 33243 ft 506 kts 289°
2026-05-08 17:51 66.94563 -112.45761 33269 ft 505 kts 289°
2026-05-08 17:51 66.97354 -112.62214 33265 ft 505 kts 289°
2026-05-08 17:52 67.00129 -112.78715 33258 ft 505 kts 289°
2026-05-08 17:53 67.04252 -113.03492 33260 ft 504 kts 288°
2026-05-08 17:53 67.06974 -113.20020 33266 ft 504 kts 288°
2026-05-08 17:54 67.09682 -113.36601 33266 ft 503 kts 288°
2026-05-08 17:54 67.12365 -113.53175 33271 ft 503 kts 288°
2026-05-08 17:55 67.15051 -113.69915 33277 ft 502 kts 288°
2026-05-08 17:55 67.17679 -113.86432 33279 ft 502 kts 288°
2026-05-08 17:56 67.20299 -114.03044 33280 ft 501 kts 288°
2026-05-08 17:56 67.22907 -114.19727 33285 ft 501 kts 288°
2026-05-08 17:57 67.25492 -114.36411 33286 ft 500 kts 288°
2026-05-08 17:57 67.28059 -114.53132 33284 ft 500 kts 288°
2026-05-08 17:58 67.30607 -114.69873 33288 ft 499 kts 288°
2026-05-08 17:58 67.33129 -114.86585 33288 ft 499 kts 288°
2026-05-08 17:59 67.35637 -115.03366 33292 ft 498 kts 288°
2026-05-08 17:59 67.38122 -115.20137 33285 ft 498 kts 288°
2026-05-08 18:00 67.40586 -115.36928 33281 ft 497 kts 288°
2026-05-08 18:00 67.44248 -115.62167 33295 ft 496 kts 288°
2026-05-08 18:01 67.46647 -115.78890 33281 ft 496 kts 288°
2026-05-08 18:01 67.49056 -115.95840 33279 ft 495 kts 287°
2026-05-08 18:02 67.51029 -116.09843 33281 ft 494 kts 287°
2026-05-08 18:02 67.53769 -116.29472 33283 ft 494 kts 287°
2026-05-08 18:03 67.56099 -116.46341 33280 ft 493 kts 287°
2026-05-08 18:03 67.58411 -116.63234 33270 ft 492 kts 287°
2026-05-08 18:04 67.60700 -116.80123 33279 ft 492 kts 287°
2026-05-08 18:04 67.62971 -116.97045 33282 ft 491 kts 287°
2026-05-08 18:05 67.65224 -117.13989 33274 ft 491 kts 287°
2026-05-08 18:05 67.67452 -117.30913 33266 ft 490 kts 287°
2026-05-08 18:06 67.69663 -117.47869 33266 ft 489 kts 287°
2026-05-08 18:06 67.71847 -117.64789 33263 ft 489 kts 287°
2026-05-08 18:07 67.74017 -117.81770 33265 ft 488 kts 287°
2026-05-08 18:07 67.76166 -117.98753 33263 ft 487 kts 287°
2026-05-08 18:08 67.78292 -118.15719 33260 ft 486 kts 286°
2026-05-08 18:08 67.80395 -118.32680 33261 ft 486 kts 286°
2026-05-08 18:09 67.82483 -118.49686 33262 ft 485 kts 286°
2026-05-08 18:09 67.84547 -118.66676 33263 ft 484 kts 286°
2026-05-08 18:10 67.86591 -118.83679 33260 ft 484 kts 286°
2026-05-08 18:10 67.88613 -119.00666 33261 ft 483 kts 286°
2026-05-08 18:11 67.90278 -119.14786 33263 ft 482 kts 286°
2026-05-08 18:11 67.92261 -119.31775 33258 ft 481 kts 285°
2026-05-08 18:12 67.94229 -119.48813 33257 ft 481 kts 285°
2026-05-08 18:12 67.96172 -119.65815 33263 ft 480 kts 285°
2026-05-08 18:13 67.98094 -119.82813 33261 ft 479 kts 285°
2026-05-08 18:13 68.00000 -119.99846 33260 ft 479 kts 285°
2026-05-08 18:14 68.02087 -120.16680 33261 ft 479 kts 289°
2026-05-08 18:14 68.04410 -120.33334 33261 ft 478 kts 289°
2026-05-08 18:15 68.06693 -120.50056 33262 ft 478 kts 288°
2026-05-08 18:15 68.08903 -120.66798 33259 ft 477 kts 288°
2026-05-08 18:16 68.11062 -120.83468 33262 ft 477 kts 288°
2026-05-08 18:16 68.13219 -121.00275 33257 ft 476 kts 288°
2026-05-08 18:17 68.15357 -121.17090 33258 ft 476 kts 287°
2026-05-08 18:17 68.17477 -121.33915 33260 ft 475 kts 287°
2026-05-08 18:18 68.19579 -121.50757 33256 ft 475 kts 287°
2026-05-08 18:18 68.21659 -121.67595 33262 ft 474 kts 287°
2026-05-08 18:19 68.23711 -121.84377 33260 ft 473 kts 287°
2026-05-08 18:19 68.25761 -122.01317 33258 ft 473 kts 287°
2026-05-08 18:20 68.27780 -122.18168 33260 ft 472 kts 286°
2026-05-08 18:20 68.29786 -122.35075 33259 ft 472 kts 286°
2026-05-08 18:21 68.31768 -122.51963 33257 ft 472 kts 286°
2026-05-08 18:21 68.33733 -122.68881 33259 ft 471 kts 286°
2026-05-08 18:22 68.35681 -122.85831 33257 ft 471 kts 285°
2026-05-08 18:22 68.37610 -123.02783 33259 ft 471 kts 285°
2026-05-08 18:23 68.39518 -123.19739 33257 ft 470 kts 285°
2026-05-08 18:23 68.41412 -123.36755 33257 ft 470 kts 285°
2026-05-08 18:24 68.43282 -123.53728 33253 ft 470 kts 285°
2026-05-08 18:24 68.45135 -123.70740 33252 ft 469 kts 285°
2026-05-08 18:25 68.46973 -123.87797 33245 ft 469 kts 285°
2026-05-08 18:25 68.48790 -124.04855 33241 ft 469 kts 284°
2026-05-08 18:26 68.50590 -124.21930 33241 ft 468 kts 284°
2026-05-08 18:26 68.52370 -124.39020 33240 ft 468 kts 284°
2026-05-08 18:27 68.53833 -124.53207 33225 ft 468 kts 284°
2026-05-08 18:27 68.55863 -124.73116 33221 ft 468 kts 284°
2026-05-08 18:28 68.57588 -124.90251 33242 ft 467 kts 284°
2026-05-08 18:28 68.59295 -125.07413 33222 ft 467 kts 283°
2026-05-08 18:29 68.60983 -125.24573 33221 ft 467 kts 283°
2026-05-08 18:29 68.62650 -125.41729 33219 ft 466 kts 283°
2026-05-08 18:30 68.64302 -125.58937 33219 ft 466 kts 283°
2026-05-08 18:30 68.65935 -125.76153 33216 ft 466 kts 283°
2026-05-08 18:31 68.67545 -125.93346 33217 ft 466 kts 282°
2026-05-08 18:31 68.69145 -126.10627 33217 ft 466 kts 282°
2026-05-08 18:32 68.70722 -126.27886 33214 ft 465 kts 282°
2026-05-08 18:32 68.72279 -126.45142 33213 ft 465 kts 282°
2026-05-08 18:33 68.73825 -126.62489 33210 ft 465 kts 282°
2026-05-08 18:33 68.75349 -126.79822 33210 ft 465 kts 282°
2026-05-08 18:34 68.76856 -126.97176 33203 ft 465 kts 281°
2026-05-08 18:34 68.78343 -127.14532 33202 ft 465 kts 281°
2026-05-08 18:35 68.79815 -127.31946 33201 ft 465 kts 281°
2026-05-08 18:35 68.81267 -127.49349 33199 ft 465 kts 281°
2026-05-08 18:36 68.82702 -127.66793 33200 ft 465 kts 281°
2026-05-08 18:36 68.84119 -127.84261 33194 ft 465 kts 281°
2026-05-08 18:37 68.85521 -128.01781 33192 ft 466 kts 280°
2026-05-08 18:37 68.86903 -128.19296 33191 ft 466 kts 280°
2026-05-08 18:38 68.88259 -128.36748 33188 ft 466 kts 280°
2026-05-08 18:38 68.89606 -128.54324 33190 ft 466 kts 280°
2026-05-08 18:39 68.90936 -128.71939 33186 ft 466 kts 279°
2026-05-08 18:39 68.92247 -128.89571 33187 ft 466 kts 279°
2026-05-08 18:40 68.93540 -129.07213 33185 ft 466 kts 279°
2026-05-08 18:40 68.94818 -129.24925 33185 ft 467 kts 279°
2026-05-08 18:41 68.96075 -129.42620 33179 ft 467 kts 279°
2026-05-08 18:41 68.97315 -129.60353 33179 ft 467 kts 279°
2026-05-08 18:42 68.98537 -129.78107 33177 ft 467 kts 279°
2026-05-08 18:42 68.99740 -129.95881 33174 ft 467 kts 278°
2026-05-08 18:43 69.00816 -130.13697 33174 ft 466 kts 276°
2026-05-08 18:43 69.01589 -130.31659 33172 ft 466 kts 275°
2026-05-08 18:44 69.02333 -130.49633 33174 ft 466 kts 275°
2026-05-08 18:44 69.03107 -130.67603 33170 ft 466 kts 275°
2026-05-08 18:45 69.03886 -130.85603 33170 ft 467 kts 275°
2026-05-08 18:45 69.04649 -131.03608 33170 ft 467 kts 275°
2026-05-08 18:46 69.05390 -131.21611 33170 ft 467 kts 275°
2026-05-08 18:46 69.06112 -131.39642 33171 ft 467 kts 274°
2026-05-08 18:47 69.06815 -131.57713 33174 ft 467 kts 274°
2026-05-08 18:47 69.07498 -131.75758 33177 ft 467 kts 274°
2026-05-08 18:48 69.08163 -131.93831 33185 ft 467 kts 274°
2026-05-08 18:48 69.08809 -132.11921 33188 ft 467 kts 274°
2026-05-08 18:49 69.09436 -132.30022 33201 ft 467 kts 274°
2026-05-08 18:49 69.10045 -132.48160 33195 ft 467 kts 273°
2026-05-08 18:50 69.10630 -132.66174 33202 ft 467 kts 273°
2026-05-08 18:50 69.11200 -132.84297 33212 ft 468 kts 273°
2026-05-08 18:51 69.11751 -133.02473 33216 ft 468 kts 273°
2026-05-08 18:51 69.12283 -133.20647 33219 ft 468 kts 272°
2026-05-08 18:52 69.12800 -133.38974 33218 ft 468 kts 272°
2026-05-08 18:52 69.13294 -133.57175 33222 ft 468 kts 272°
2026-05-08 18:53 69.13769 -133.75400 33212 ft 469 kts 272°
2026-05-08 18:53 69.14224 -133.93603 33213 ft 469 kts 272°
2026-05-08 18:54 69.14659 -134.11772 33212 ft 469 kts 272°
2026-05-08 18:54 69.15076 -134.30043 33206 ft 469 kts 271°
2026-05-08 18:55 69.15667 -134.57495 33202 ft 470 kts 271°
2026-05-08 18:56 69.16037 -134.75808 33208 ft 470 kts 271°
2026-05-08 18:56 69.16388 -134.94147 33200 ft 470 kts 271°
2026-05-08 18:57 69.16719 -135.12486 33203 ft 471 kts 271°
2026-05-08 18:57 69.17031 -135.30877 33207 ft 471 kts 271°
2026-05-08 18:58 69.17275 -135.46159 33212 ft 472 kts 270°
2026-05-08 18:58 69.17596 -135.67683 33207 ft 472 kts 270°
2026-05-08 18:59 69.17809 -135.83031 33207 ft 472 kts 270°
2026-05-08 18:59 69.18046 -136.01445 33203 ft 473 kts 270°
2026-05-08 19:00 69.18264 -136.19960 33206 ft 473 kts 270°
2026-05-08 19:00 69.18463 -136.38449 33207 ft 473 kts 270°
2026-05-08 19:01 69.18641 -136.56941 33205 ft 474 kts 269°
2026-05-08 19:01 69.18800 -136.75486 33211 ft 474 kts 269°
2026-05-08 19:02 69.18939 -136.94017 33210 ft 474 kts 269°
2026-05-08 19:02 69.19058 -137.12596 33210 ft 475 kts 269°
2026-05-08 19:03 69.19157 -137.31147 33209 ft 475 kts 269°
2026-05-08 19:03 69.19237 -137.49734 33213 ft 475 kts 269°
2026-05-08 19:04 69.19296 -137.68296 33213 ft 475 kts 269°
2026-05-08 19:04 69.19335 -137.86791 33217 ft 476 kts 268°
2026-05-08 19:05 69.19353 -138.02385 33220 ft 476 kts 268°